DELTA 1 DEB, 21363

Orbit data source: Space-Track

DELTA 1 DEB, 21363 is space debris in SSO originally from a launch on Thu, 12 Jun 1975 UTC launched from the Air Force Western Test Range (AFWTR). Debris objects in space refer to the collection of defunct objects orbiting the Earth. Examples of debris include non-operational satellites, rocket bodies, and fragments generated from explosions, collisions, or faulty payload assembly.

Loading next visibility...
Identifier
21363, 1975-052CH
Orbit
SSO
Country
Flag of USUS
Related business
Manufacturer
Unknown
Mission
Spacecraft
Bus & Motor
Unknown
Mass
Unknown
Launch date (UTC)
1975-06-12 (51 years ago)
Launch vehicle
Unknown
Launch site
Air Force Western Test Range (AFWTR)
Object type
Payload
Rocket body
Debris
Shape & HBR
Unknown shape, 0.3 m
Radar Cross Section
Small (<0.1 m²)

Expand to show TLE details & history
Last TLE update: 19 hours ago

TLE from 19 hours ago
0 DELTA 1 DEB
1 21363U 75052CH  25346.28673309  .00000278  00000-0  84532-3 0  9994
2 21363  99.7386 274.1946 0175085 346.6266 134.4779 13.10256822651974
Epoch: 2025-12-12T06:52Z
TLE epoch observation values (Epoch: 2025-12-12T06:52:53.738Z)
Latitude
56.30648°
Longitude
-75.41954°
Altitude
1,325.871 km
Speed
7.155 km/s
True Right ascension
07h 16m 08s
True Declination
56° 09' 33"
Sunlit
Object was in full shadow at epoch
Visualization orbit readout
Latitude
Unknown
Longitude
Unknown
Altitude
Unknown
Speed
Unknown
Apparent Right ascension
Unknown
Apparent Declination
Unknown
Sunlit
N/A
Visualization observer readout
Local Sidereal Time
00:30:55
Azimuth
Unknown
Elevation
Unknown
Doppler factor
Unknown
Orbital elements
Apogee altitude
1,352.545 km
Perigee altitude
1,086.498 km
Semi-major axis
7,597.658 km
Eccentricity
0.01751
Inclination
99.7386°
RAAN
274.1946°
Arg. of periapsis
346.6266°
True anomaly
135.88768°
Mean anomaly
134.4779°
Eccentric anomaly
135.18495°
Mean motion
3.27736 °/min
Orbital period
109.84 mins
BSTAR
0.00084532
Loading maneuver chart data...
Computing Atmospheric mass density...
Loading historical data...
Loading historical data...
Loading historical data...
Loading historical data...
Loading historical data...
Loading historical data...
Loading historical data...

Documentation

Showing up to 5 results
|